Pittsburgh Allegheny Co., PA

7:26 AM EDT on July 28, 2017 (GMT -0400)
Allegheny County

Weather History for KAGC - March, 2013

Change the Weather History Date:

Monday, March 25, 2013

  Actual Average Record
Temperature  
Mean Temperature 32 °F -  
Max Temperature 35 °F 50 °F 77 °F (1988)
Min Temperature 30 °F 33 °F 21 °F (2001)
Degree Days  
Heating Degree Days 32    
Moisture  
Dew Point 31 °F    
Average Humidity 97    
Maximum Humidity 100    
Minimum Humidity 87    
Precipitation  
Precipitation 0.62 in - - ()
Sea Level Pressure  
Sea Level Pressure 29.51 in    
Wind  
Wind Speed 10 mph (South)    
Max Wind Speed 15 mph    
Max Gust Speed 22 mph    
Visibility 2 miles    
Events Fog , Snow    
Averages and records for this station are not official NWS values.
T = Trace of Precipitation, MM = Missing Value Source: NWS Daily Summary

Daily Weather History Graph

Daily Weather History Graph

Search for Another Location

Airport or City:

Trip Planner

Search our weather history database for the weather conditions in past years. The results will help you decide how hot, cold, wet, or windy it might be!

Date:

Astronomy

Mar. 25, 2013 Rise Set
Actual Time 7:14 AM EDT 7:37 PM EDT
Civil Twilight 6:47 AM EDT 8:04 PM EDT
Nautical Twilight 6:15 AM EDT 8:36 PM EDT
Astronomical Twilight 5:42 AM EDT 9:09 PM EDT
Moon 6:07 PM EDT (3/25) 5:57 AM EDT (3/25)
Length of Visible Light 13h 17m
Length of Day
12h 22m
Waxing Gibbous, 96% of the Moon is Illuminated
Mar 25
Waxing Gibbous
Mar 27
Full
Apr 3
Last Quarter
Apr 10
New
Apr 18
First Quarter

Hourly Weather History & Observations

Time (EDT) Temp. Windchill Dew Point Humidity Pressure Visibility Wind Dir Wind Speed Gust Speed Precip Events Conditions
12:00 AM 32.0 °F 21.6 °F 28.4 °F 87% 29.50 in 2.5 mi East 15.0 mph - 0.00 in Snow Light Snow
12:25 AM 32.0 °F 22.5 °F 28.4 °F 87% 29.50 in 1.5 mi ESE 12.7 mph 19.6 mph 0.00 in Snow Light Snow
12:40 AM 30.2 °F 20.8 °F 30.2 °F 100% 29.50 in 1.2 mi East 11.5 mph - 0.00 in Snow Light Snow
12:53 AM 30.9 °F 21.7 °F 30.0 °F 96% 29.54 in 1.2 mi East 11.5 mph - 0.00 in Snow Light Snow
1:39 AM 30.2 °F 21.3 °F 30.2 °F 100% 29.50 in 0.5 mi ESE 10.4 mph - 0.00 in Fog , Snow Snow
1:47 AM 30.2 °F 21.9 °F 30.2 °F 100% 29.49 in 0.2 mi ESE 9.2 mph - 0.00 in Fog , Snow Heavy Snow
1:48 AM 30.0 °F 21.1 °F 30.0 °F 100% 29.54 in 0.2 mi ESE 10.4 mph - 0.00 in Fog , Snow Heavy Snow
2:07 AM 30.2 °F 20.2 °F 30.2 °F 100% 29.49 in 0.5 mi ESE 12.7 mph - 0.00 in Fog , Snow Snow
2:15 AM 30.2 °F 21.3 °F 30.2 °F 100% 29.49 in 0.5 mi ESE 10.4 mph - 0.00 in Fog , Snow Snow
2:53 AM 30.0 °F 21.7 °F 30.0 °F 100% 29.52 in 0.5 mi ESE 9.2 mph - 0.00 in Fog , Snow Snow
3:53 AM 30.0 °F 21.1 °F 30.0 °F 100% 29.49 in 0.5 mi ESE 10.4 mph - 0.00 in Fog , Snow Snow
4:53 AM 30.0 °F 20.0 °F 30.0 °F 100% 29.47 in 0.5 mi ESE 12.7 mph 21.9 mph 0.00 in Fog , Snow Snow
5:53 AM 30.0 °F 20.0 °F 30.0 °F 100% 29.46 in 0.8 mi ESE 12.7 mph - 0.00 in Snow Light Snow
6:04 AM 30.2 °F 21.3 °F 30.2 °F 100% 29.42 in 1.2 mi ESE 10.4 mph - 0.00 in Snow Light Snow
6:44 AM 30.2 °F 21.3 °F 30.2 °F 100% 29.42 in 2.0 mi SE 10.4 mph - 0.00 in Snow Light Snow
6:53 AM 30.0 °F 22.4 °F 30.0 °F 100% 29.47 in 1.0 mi SE 8.1 mph - 0.00 in Snow Light Snow
7:00 AM 30.2 °F 22.6 °F 30.2 °F 100% 29.43 in 2.0 mi SE 8.1 mph - 0.00 in Snow Light Snow
7:10 AM 30.2 °F 23.4 °F 30.2 °F 100% 29.43 in 1.8 mi ESE 6.9 mph - 0.00 in Snow Light Snow
7:17 AM 30.2 °F 22.6 °F 30.2 °F 100% 29.43 in 2.5 mi ESE 8.1 mph - 0.00 in Snow Light Snow
7:29 AM 30.2 °F 22.6 °F 30.2 °F 100% 29.43 in 2.5 mi SE 8.1 mph - 0.00 in Snow Light Snow
7:49 AM 30.2 °F 23.4 °F 30.2 °F 100% 29.43 in 1.8 mi ESE 6.9 mph - 0.00 in   Overcast
7:53 AM 30.9 °F 23.5 °F 30.9 °F 100% 29.48 in 1.8 mi SSE 8.1 mph - 0.00 in   Overcast
8:53 AM 30.9 °F 22.2 °F 30.9 °F 100% 29.48 in 1.2 mi SSE 10.4 mph - 0.00 in Snow Light Snow
9:04 AM 30.2 °F 21.3 °F 30.2 °F 100% 29.44 in 1.5 mi SSE 10.4 mph - 0.00 in Snow Light Snow
9:41 AM 30.2 °F 22.6 °F 30.2 °F 100% 29.44 in 0.8 mi SSE 8.1 mph - 0.00 in Snow Light Snow
9:53 AM 30.9 °F 24.3 °F 30.9 °F 100% 29.49 in 0.8 mi SSE 6.9 mph - 0.00 in Snow Light Snow
10:21 AM 32.0 °F 27.5 °F 30.2 °F 93% 29.44 in 0.5 mi SSE 4.6 mph - 0.00 in Fog , Snow Light Snow
10:31 AM 32.0 °F 27.5 °F 30.2 °F 93% 29.45 in 0.2 mi SE 4.6 mph - 0.00 in Fog , Snow Light Snow
10:43 AM 32.0 °F 26.4 °F 32.0 °F 100% 29.45 in 0.2 mi SSE 5.8 mph - 0.00 in Fog , Snow Light Snow
10:51 AM 32.0 °F 27.5 °F 32.0 °F 100% 29.45 in 0.5 mi SSE 4.6 mph - 0.00 in Fog , Snow Light Snow
10:53 AM 32.0 °F 27.5 °F 32.0 °F 100% 29.49 in 0.2 mi SSE 4.6 mph - 0.00 in Fog , Snow Light Snow
11:03 AM 32.0 °F 27.5 °F 32.0 °F 100% 29.45 in 0.2 mi SSE 4.6 mph - 0.00 in Fog , Snow Light Snow
11:14 AM 32.0 °F 25.6 °F 32.0 °F 100% 29.45 in 0.5 mi South 6.9 mph - 0.00 in Fog , Snow Light Snow
11:27 AM 33.8 °F 28.6 °F 32.0 °F 93% 29.46 in 1.0 mi SSW 5.8 mph - 0.00 in Snow Light Snow
11:37 AM 33.8 °F 27.0 °F 32.0 °F 93% 29.46 in 1.0 mi SSW 8.1 mph - 0.00 in Snow Light Snow
11:53 AM 33.1 °F 26.1 °F 32.0 °F 96% 29.51 in 1.0 mi SSW 8.1 mph - 0.01 in Snow Light Snow
12:01 PM 33.8 °F 27.7 °F 32.0 °F 93% 29.46 in 1.2 mi Variable 6.9 mph - 0.01 in Snow Light Snow
12:34 PM 33.8 °F 30.8 °F 33.8 °F 100% 29.47 in 1.0 mi South 3.5 mph - 0.04 in Snow Light Snow
12:37 PM 33.8 °F 27.0 °F 32.0 °F 93% 29.48 in 0.8 mi SSW 8.1 mph - 0.04 in Snow Light Snow
12:53 PM 33.1 °F 26.9 °F 32.0 °F 96% 29.52 in 1.2 mi WSW 6.9 mph - 0.05 in Snow Light Snow
1:07 PM 33.8 °F 27.7 °F 32.0 °F 93% 29.48 in 2.0 mi SSW 6.9 mph - 0.03 in Snow Light Snow
1:16 PM 33.8 °F 25.8 °F 32.0 °F 93% 29.48 in 1.0 mi SSW 10.4 mph - 0.05 in Snow Light Snow
1:36 PM 33.8 °F 27.7 °F 32.0 °F 93% 29.48 in 2.5 mi SW 6.9 mph - 0.08 in Snow Light Snow
1:53 PM 34.0 °F 27.2 °F 32.0 °F 92% 29.53 in 1.0 mi SW 8.1 mph - 0.12 in Snow Light Snow
1:57 PM 33.8 °F 27.0 °F 32.0 °F 93% 29.49 in 2.0 mi SW 8.1 mph - 0.01 in Snow Light Snow
2:05 PM 33.8 °F 27.7 °F 32.0 °F 93% 29.49 in 2.0 mi SW 6.9 mph - 0.03 in Snow Light Snow
2:14 PM 33.8 °F 26.4 °F 32.0 °F 93% 29.49 in 2.0 mi SSW 9.2 mph - 0.05 in Snow Light Snow
2:18 PM 33.8 °F 27.7 °F 32.0 °F 93% 29.49 in 3.0 mi SW 6.9 mph - 0.06 in Snow Light Snow
2:51 PM 33.8 °F 28.6 °F 32.0 °F 93% 29.49 in 1.5 mi SW 5.8 mph - 0.12 in Snow Light Snow
2:53 PM 34.0 °F 28.8 °F 32.0 °F 92% 29.54 in 1.5 mi SW 5.8 mph - 0.13 in Snow Light Snow
2:56 PM 33.8 °F 28.6 °F 32.0 °F 93% 29.49 in 3.0 mi WSW 5.8 mph - 0.00 in Snow Light Snow
3:03 PM 33.8 °F 27.7 °F 33.8 °F 100% 29.49 in 1.5 mi SW 6.9 mph - 0.02 in Snow Light Snow
3:49 PM 35.6 °F 28.0 °F 32.0 °F 87% 29.50 in 3.0 mi West 10.4 mph - 0.09 in   Overcast
3:53 PM 35.1 °F 27.4 °F 32.0 °F 89% 29.55 in 3.0 mi WSW 10.4 mph - 0.09 in   Overcast
4:53 PM 35.1 °F 27.9 °F 33.1 °F 92% 29.57 in 3.0 mi West 9.2 mph - 0.08 in Snow Light Snow
5:53 PM 34.0 °F 28.0 °F 33.1 °F 96% 29.60 in 4.0 mi West 6.9 mph - 0.06 in Snow Light Snow
6:53 PM 34.0 °F 27.2 °F 32.0 °F 92% 29.63 in 3.0 mi WSW 8.1 mph - 0.04 in Snow Light Snow
7:53 PM 34.0 °F 27.2 °F 32.0 °F 92% 29.66 in 2.0 mi WSW 8.1 mph - 0.02 in   Overcast
8:53 PM 33.1 °F 25.5 °F 32.0 °F 96% 29.68 in 2.0 mi WSW 9.2 mph - 0.01 in Snow Light Snow
9:03 PM 33.8 °F 26.4 °F 32.0 °F 93% 29.64 in 4.0 mi West 9.2 mph - 0.01 in Snow Light Snow
9:19 PM 33.8 °F 27.0 °F 32.0 °F 93% 29.65 in 1.8 mi WSW 8.1 mph - 0.01 in Snow Light Snow
9:53 PM 32.0 °F 25.6 °F 32.0 °F 100% 29.71 in 1.2 mi West 6.9 mph - 0.01 in Snow Light Snow
10:11 PM 32.0 °F 27.5 °F 32.0 °F 100% 29.66 in 1.8 mi West 4.6 mph - 0.00 in Snow Light Snow
10:53 PM 32.0 °F 24.2 °F 32.0 °F 100% 29.73 in 0.5 mi NNW 9.2 mph - 0.00 in Fog , Snow Light Snow
11:25 PM 32.0 °F 24.8 °F 32.0 °F 100% 29.69 in 1.2 mi North 8.1 mph - 0.00 in Snow Light Snow
11:53 PM 32.0 °F 24.8 °F 32.0 °F 100% 29.75 in 2.0 mi North 8.1 mph - 0.00 in Snow Light Snow